Location: Czekanka
(50.4925°N, 19.2643°E)
Time: 08:21:57
(UTC+00:00)

SL-16 R/B - Pass Details

Date: 18 September 2024
Orbit: 842 x 846 km, 71.0° (Epoch: 05 October)

Event Time Altitude Azimuth Distance (km) Brightness Sun altitude
Rises 19:17:07 0° 216° (SW) 3,394 5.4 -23.0°
Reaches altitude 10° 19:19:35 10° 219° (SW) 2,463 4.7 -23.3°
Maximum altitude 19:25:12 67° 302° (WNW) 913 2.5 -24.0°
Drops below altitude 10° 19:30:53 10° 26° (NNE) 2,475 4.7 -24.7°
Sets 19:33:21 0° 29° (NNE) 3,413 5.5 -25.1°
